| time (UTC) | temp F | wind direction | speed MPH | gust MPH | rain 1hr in | rain 24hr in | rain mn in | humidity % | barometer mb |
| 20260905214016 | 64 | 0.0 | 1.0 | 0.48 | 0.53 | 0.53 | 27 | 1009.0 | |
| 20260905213656 | 64 | 68 | 0.0 | 1.0 | 0.52 | 0.53 | 0.53 | 30 | 1008.9 |
| 20260905213016 | 64 | 68 | 0.0 | 1.0 | 0.51 | 0.51 | 0.51 | 34 | 1008.9 |
| 20260905212516 | 64 | 68 | 0.0 | 1.0 | 0.49 | 0.49 | 0.49 | 39 | 1008.9 |
| 20260905212017 | 65 | 68 | 0.0 | 1.0 | 0.46 | 0.46 | 0.46 | 42 | 1008.8 |
| 20260905211516 | 65 | 0.0 | 0.0 | 0.43 | 0.43 | 0.43 | 45 | 1008.8 | |
| 20260905211036 | 66 | 0.0 | 0.0 | 0.39 | 0.39 | 0.39 | 47 | 1008.8 | |
| 20260905210516 | 66 | 0.0 | 0.0 | 0.35 | 0.35 | 0.35 | 48 | 1008.7 | |
| 20260905210036 | 67 | 0.0 | 0.0 | 0.29 | 0.29 | 0.29 | 55 | 1008.6 | |
| 20260905205516 | 68 | 0.0 | 0.0 | 0.24 | 0.24 | 0.24 | 56 | 1008.4 | |
| 20260905205016 | 69 | 0.0 | 0.0 | 0.18 | 0.18 | 0.18 | 53 | 1008.4 | |
| 20260905204516 | 69 | 0.0 | 2.0 | 0.12 | 0.12 | 0.12 | 56 | 1008.3 | |
| 20260905204016 | 69 | 73 | 0.0 | 2.0 | 0.05 | 0.05 | 0.05 | 62 | 1008.3 |
| 20260905203556 | 69 | 0.0 | 0.0 | 0.01 | 0.01 | 0.01 | 68 | 1008.1 | |
| 20260905203016 | 69 | 0.0 | 0.0 | 0.00 | 0.00 | 0.00 | 69 | 1007.9 | |
| 20260905202556 | 69 | 0.0 | 0.0 | 0.00 | 0.00 | 0.00 | 67 | 1007.8 | |
| 20260905202016 | 69 | 0.0 | 0.0 | 0.00 | 0.00 | 0.00 | 63 | 1007.7 | |
| 20260905201516 | 69 | 0.0 | 0.0 | 0.00 | 0.00 | 0.00 | 60 | 1007.8 | |
| 20260905201016 | 69 | 0.0 | 0.0 | 0.00 | 0.00 | 0.00 | 61 | 1007.8 | |
| 20260905200516 | 69 | 0.0 | 0.0 | 0.00 | 0.00 | 0.00 | 62 | 1007.7 | |
| 20260905200016 | 69 | 0.0 | 0.0 | 0.00 | 0.00 | 0.00 | 63 | 1007.7 | |
| 20260905195516 | 69 | 0.0 | 0.0 | 0.00 | 0.00 | 0.00 | 67 | 1007.8 | |
| 20260905195016 | 69 | 0.0 | 0.0 | 0.00 | 0.00 | 0.00 | 69 | 1007.7 | |
| 20260905194536 | 69 | 0.0 | 0.0 | 0.00 | 0.00 | 0.00 | 69 | 1007.8 | |
| 20260905194016 | 69 | 0.0 | 1.0 | 0.00 | 0.00 | 0.00 | 71 | 1007.7 | |
| 20260905193516 | 69 | 173 | 0.0 | 2.0 | 0.00 | 0.00 | 0.00 | 71 | 1007.7 |
| 20260905193016 | 70 | 173 | 0.0 | 2.0 | 0.00 | 0.00 | 0.00 | 70 | 1007.7 |
| 20260905192516 | 70 | 0.0 | 0.0 | 0.00 | 0.00 | 0.00 | 72 | 1007.7 | |
| 20260905192036 | 70 | 0.0 | 0.0 | 0.00 | 0.00 | 0.00 | 69 | 1007.7 | |
| 20260905191516 | 70 | 0.0 | 1.0 | 0.00 | 0.00 | 0.00 | 70 | 1007.6 | |
| 20260905191036 | 70 | 269 | 0.0 | 1.0 | 0.00 | 0.00 | 0.00 | 70 | 1007.6 |
| 20260905190516 | 70 | 0.0 | 4.0 | 0.00 | 0.00 | 0.00 | 71 | 1007.7 | |
| 20260905190016 | 70 | 319 | 0.0 | 4.0 | 0.00 | 0.00 | 0.00 | 71 | 1007.6 |
| 20260905185516 | 70 | 317 | 0.0 | 3.0 | 0.00 | 0.00 | 0.00 | 71 | 1007.6 |
| 20260905185016 | 70 | 197 | 0.0 | 2.0 | 0.00 | 0.00 | 0.00 | 73 | 1007.7 |
| 20260905184516 | 70 | 74 | 0.0 | 2.0 | 0.00 | 0.00 | 0.00 | 73 | 1007.7 |
| 20260905184016 | 71 | 107 | 0.0 | 2.0 | 0.00 | 0.00 | 0.00 | 74 | 1007.7 |
| 20260905183536 | 71 | 0.0 | 0.0 | 0.00 | 0.00 | 0.00 | 74 | 1007.6 | |
| 20260905183016 | 71 | 0.0 | 0.0 | 0.00 | 0.00 | 0.00 | 74 | 1007.6 | |
| 20260905182516 | 72 | 0.0 | 0.0 | 0.00 | 0.00 | 0.00 | 74 | 1007.7 | |
| 20260905182016 | 72 | 0.0 | 4.0 | 0.00 | 0.00 | 0.00 | 73 | 1007.7 | |
| 20260905181536 | 71 | 322 | 0.0 | 4.0 | 0.00 | 0.00 | 0.00 | 74 | 1007.6 |
| 20260905181036 | 71 | 344 | 0.0 | 2.0 | 0.00 | 0.00 | 0.00 | 74 | 1007.6 |
| 20260905180516 | 71 | 0.0 | 0.0 | 0.00 | 0.00 | 0.00 | 74 | 1007.6 | |
| 20260905180036 | 71 | 0.0 | 0.0 | 0.00 | 0.00 | 0.00 | 74 | 1007.7 | |
| 20260905175516 | 71 | 0.0 | 0.0 | 0.00 | 0.00 | 0.00 | 74 | 1007.7 | |
| 20260905175016 | 70 | 0.0 | 0.0 | 0.00 | 0.00 | 0.00 | 74 | 1007.7 | |
| 20260905174515 | 70 | 0.0 | 0.0 | 0.00 | 0.00 | 0.00 | 73 | 1007.7 | |
| 20260905174016 | 71 | 0.0 | 0.0 | 0.00 | 0.00 | 0.00 | 74 | 1007.6 | |
| 20260905173515 | 71 | 0.0 | 0.0 | 0.00 | 0.00 | 0.00 | 74 | 1007.6 | |
| 20260905173015 | 71 | 0.0 | 0.0 | 0.00 | 0.00 | 0.00 | 75 | 1007.6 | |
| 20260905172536 | 71 | 0.0 | 0.0 | 0.00 | 0.00 | 0.00 | 75 | 1007.5 | |
| 20260905172035 | 71 | 0.0 | 0.0 | 0.00 | 0.00 | 0.00 | 75 | 1007.5 | |
| 20260905171515 | 71 | 0.0 | 0.0 | 0.00 | 0.00 | 0.00 | 74 | 1007.5 | |
| 20260905171015 | 71 | 0.0 | 0.0 | 0.00 | 0.00 | 0.00 | 74 | 1007.4 | |
| 20260905170515 | 71 | 0.0 | 0.0 | 0.00 | 0.00 | 0.00 | 74 | 1007.4 | |
| 20260905170015 | 71 | 0.0 | 1.0 | 0.00 | 0.00 | 0.00 | 74 | 1007.4 | |
| 20260905165535 | 71 | 269 | 0.0 | 1.0 | 0.00 | 0.00 | 0.00 | 73 | 1007.5 |
| 20260905165015 | 70 | 0.0 | 0.0 | 0.00 | 0.00 | 0.00 | 74 | 1007.5 | |
| 20260905164516 | 70 | 0.0 | 0.0 | 0.00 | 0.00 | 0.00 | 74 | 1007.6 | |
| 20260905164015 | 70 | 0.0 | 0.0 | 0.00 | 0.00 | 0.00 | 74 | 1007.6 | |
| 20260905163515 | 71 | 0.0 | 0.0 | 0.00 | 0.00 | 0.00 | 75 | 1007.6 | |
| 20260905163015 | 71 | 0.0 | 0.0 | 0.00 | 0.00 | 0.00 | 75 | 1007.5 | |
| 20260905162515 | 71 | 0.0 | 1.0 | 0.00 | 0.00 | 0.00 | 74 | 1007.5 | |
| 20260905162015 | 71 | 188 | 0.0 | 2.0 | 0.00 | 0.00 | 0.00 | 74 | 1007.5 |
| 20260905161515 | 71 | 76 | 0.0 | 2.0 | 0.00 | 0.00 | 0.00 | 74 | 1007.5 |
| 20260905161015 | 71 | 0.0 | 1.0 | 0.00 | 0.00 | 0.00 | 74 | 1007.6 | |
| 20260905160515 | 71 | 0 | 0.0 | 1.0 | 0.00 | 0.00 | 0.00 | 74 | 1007.6 |
| 20260905160015 | 71 | 0.0 | 3.0 | 0.00 | 0.00 | 0.00 | 74 | 1007.6 | |
| 20260905155515 | 71 | 0 | 0.0 | 3.0 | 0.00 | 0.00 | 0.00 | 74 | 1007.6 |
| 20260905155055 | 72 | 0 | 0.0 | 2.0 | 0.00 | 0.00 | 0.00 | 74 | 1007.6 |
| 20260905154515 | 72 | 0 | 0.0 | 2.0 | 0.00 | 0.00 | 0.00 | 74 | 1007.6 |
| 20260905154015 | 72 | 264 | 0.0 | 3.0 | 0.00 | 0.00 | 0.00 | 74 | 1007.6 |
| 20260905153536 | 71 | 287 | 0.0 | 3.0 | 0.00 | 0.00 | 0.00 | 74 | 1007.6 |
| 20260905153015 | 71 | 0.0 | 0.0 | 0.00 | 0.00 | 0.00 | 74 | 1007.6 | |
| 20260905152515 | 70 | 0.0 | 0.0 | 0.00 | 0.00 | 0.00 | 73 | 1007.7 | |
| 20260905152015 | 70 | 0.0 | 0.0 | 0.00 | 0.00 | 0.00 | 74 | 1007.7 | |
| 20260905151515 | 70 | 0.0 | 0.0 | 0.00 | 0.00 | 0.00 | 72 | 1007.7 | |
| 20260905151015 | 69 | 0.0 | 0.0 | 0.00 | 0.00 | 0.00 | 71 | 1007.7 | |
| 20260905150515 | 69 | 0.0 | 0.0 | 0.00 | 0.00 | 0.00 | 72 | 1007.7 | |
| 20260905150015 | 69 | 0.0 | 3.0 | 0.00 | 0.00 | 0.00 | 72 | 1007.7 | |
| 20260905145515 | 69 | 344 | 0.0 | 3.0 | 0.00 | 0.00 | 0.00 | 72 | 1007.7 |
| 20260905145015 | 69 | 0.0 | 5.0 | 0.00 | 0.00 | 0.00 | 73 | 1007.8 | |
| 20260905144515 | 69 | 353 | 0.0 | 5.0 | 0.00 | 0.00 | 0.00 | 72 | 1007.8 |
| 20260905144016 | 69 | 343 | 0.0 | 2.0 | 0.00 | 0.00 | 0.00 | 73 | 1007.9 |
| 20260905143515 | 69 | 343 | 0.0 | 2.0 | 0.00 | 0.00 | 0.00 | 73 | 1007.9 |
| 20260905143015 | 68 | 342 | 0.0 | 2.0 | 0.00 | 0.00 | 0.00 | 72 | 1007.9 |
| 20260905142515 | 68 | 0.0 | 0.0 | 0.00 | 0.00 | 0.00 | 71 | 1007.9 | |
| 20260905142035 | 68 | 0.0 | 0.0 | 0.00 | 0.00 | 0.00 | 71 | 1007.9 | |
| 20260905141515 | 68 | 0.0 | 0.0 | 0.00 | 0.00 | 0.00 | 69 | 1007.9 | |
| 20260905141015 | 68 | 0.0 | 0.0 | 0.00 | 0.00 | 0.00 | 69 | 1008.0 | |
| 20260905140515 | 68 | 0.0 | 0.0 | 0.00 | 0.00 | 0.00 | 69 | 1008.0 | |
| 20260905140015 | 68 | 0.0 | 5.0 | 0.00 | 0.00 | 0.00 | 71 | 1008.0 | |
| 20260905135515 | 68 | 4 | 0.0 | 5.0 | 0.00 | 0.00 | 0.00 | 68 | 1007.8 |
| 20260905135015 | 67 | 0.0 | 0.0 | 0.00 | 0.00 | 0.00 | 66 | 1007.8 | |
| 20260905134515 | 67 | 0.0 | 0.0 | 0.00 | 0.00 | 0.00 | 69 | 1007.8 | |
| 20260905134015 | 67 | 0.0 | 0.0 | 0.00 | 0.00 | 0.00 | 69 | 1007.7 | |
| 20260905133515 | 67 | 0.0 | 0.0 | 0.00 | 0.00 | 0.00 | 64 | 1007.6 | |
| 20260905133015 | 66 | 0.0 | 0.0 | 0.00 | 0.00 | 0.00 | 60 | 1007.6 | |
| 20260905132515 | 66 | 0.0 | 0.0 | 0.00 | 0.00 | 0.00 | 58 | 1007.6 | |
| 20260905132015 | 66 | 0.0 | 0.0 | 0.00 | 0.00 | 0.00 | 58 | 1007.5 | |
| 20260905131535 | 66 | 0.0 | 3.0 | 0.00 | 0.00 | 0.00 | 55 | 1007.5 | |
| 20260905131015 | 65 | 11 | 0.0 | 3.0 | 0.00 | 0.00 | 0.00 | 54 | 1007.4 |
| 20260905130535 | 65 | 48 | 0.0 | 1.0 | 0.00 | 0.00 | 0.00 | 54 | 1007.3 |
| 20260905130015 | 65 | 0.0 | 0.0 | 0.00 | 0.00 | 0.00 | 56 | 1007.2 | |
| 20260905125515 | 65 | 0.0 | 1.0 | 0.00 | 0.00 | 0.00 | 57 | 1007.3 | |
| 20260905125015 | 65 | 253 | 0.0 | 2.0 | 0.00 | 0.00 | 0.00 | 57 | 1007.3 |
| 20260905124515 | 65 | 252 | 0.0 | 3.0 | 0.00 | 0.00 | 0.00 | 60 | 1007.2 |
| 20260905124015 | 65 | 345 | 0.0 | 4.0 | 0.00 | 0.00 | 0.00 | 59 | 1007.2 |
| 20260905123515 | 65 | 322 | 0.0 | 4.0 | 0.00 | 0.00 | 0.00 | 57 | 1007.0 |
| 20260905123015 | 64 | 263 | 0.0 | 3.0 | 0.00 | 0.00 | 0.00 | 53 | 1007.0 |
| 20260905122515 | 64 | 259 | 0.0 | 2.0 | 0.00 | 0.00 | 0.00 | 47 | 1006.9 |
| 20260905122015 | 64 | 0.0 | 2.0 | 0.00 | 0.00 | 0.00 | 44 | 1006.9 | |
| 20260905121535 | 64 | 6 | 0.0 | 2.0 | 0.00 | 0.00 | 0.00 | 39 | 1006.8 |
| 20260905121015 | 63 | 0.0 | 0.0 | 0.00 | 0.00 | 0.00 | 29 | 1006.7 | |
| 20260905120635 | 63 | 0.0 | 0.0 | 0.00 | 0.00 | 0.00 | 24 | 1006.8 | |
| 20260905120015 | 62 | 0.0 | 6.0 | 0.00 | 0.00 | 0.00 | 14 | 1006.7 | |
| 20260905115535 | 62 | 250 | 0.0 | 6.0 | 0.00 | 0.00 | 0.00 | 11 | 1006.7 |
| 20260905115015 | 61 | 72 | 0.0 | 3.0 | 0.00 | 0.00 | 0.00 | 10 | 1006.7 |
| 20260905114515 | 61 | 252 | 0.0 | 7.0 | 0.00 | 0.00 | 0.00 | 10 | 1006.6 |
| 20260905114015 | 60 | 307 | 1.0 | 7.0 | 0.00 | 0.00 | 0.00 | 11 | 1006.6 |
| 20260905113515 | 59 | 290 | 1.0 | 7.0 | 0.00 | 0.00 | 0.00 | 12 | 1006.5 |
| 20260905113015 | 59 | 257 | 0.0 | 1.0 | 0.00 | 0.00 | 0.00 | 13 | 1006.5 |
| 20260905112515 | 59 | 0.0 | 0.0 | 0.00 | 0.00 | 0.00 | 14 | 1006.5 | |
| 20260905112015 | 59 | 0.0 | 0.0 | 0.00 | 0.00 | 0.00 | 15 | 1006.6 | |
| 20260905111515 | 59 | 0.0 | 0.0 | 0.00 | 0.00 | 0.00 | 15 | 1006.6 | |
| 20260905111015 | 59 | 0.0 | 0.0 | 0.00 | 0.00 | 0.00 | 16 | 1006.6 | |
| 20260905110515 | 59 | 0.0 | 0.0 | 0.00 | 0.00 | 0.00 | 17 | 1006.6 | |
| 20260905110014 | 59 | 0.0 | 0.0 | 0.00 | 0.00 | 0.00 | 17 | 1006.5 | |
| 20260905105514 | 59 | 0.0 | 0.0 | 0.00 | 0.00 | 0.00 | 17 | 1006.5 | |
| 20260905105014 | 59 | 0.0 | 0.0 | 0.00 | 0.00 | 0.00 | 18 | 1006.5 | |
| 20260905104517 | 59 | 0.0 | 0.0 | 0.00 | 0.00 | 0.00 | 18 | 1006.5 | |
| 20260905104017 | 59 | 0.0 | 0.0 | 0.00 | 0.00 | 0.00 | 17 | 1006.5 | |
| 20260905103517 | 59 | 0.0 | 0.0 | 0.00 | 0.00 | 0.00 | 16 | 1006.5 | |
| 20260905103016 | 59 | 0.0 | 0.0 | 0.00 | 0.00 | 0.00 | 15 | 1006.5 | |
| 20260905102516 | 59 | 0.0 | 0.0 | 0.00 | 0.00 | 0.00 | 15 | 1006.5 | |
| 20260905102016 | 59 | 0.0 | 0.0 | 0.00 | 0.00 | 0.00 | 15 | 1006.4 | |
| 20260905101516 | 59 | 0.0 | 0.0 | 0.00 | 0.00 | 0.00 | 16 | 1006.4 | |
| 20260905101017 | 59 | 0.0 | 0.0 | 0.00 | 0.00 | 0.00 | 16 | 1006.4 | |
| 20260905100516 | 59 | 0.0 | 0.0 | 0.00 | 0.00 | 0.00 | 17 | 1006.4 | |
| 20260905100016 | 59 | 0.0 | 0.0 | 0.00 | 0.00 | 0.00 | 17 | 1006.3 | |
| 20260905095516 | 59 | 0.0 | 0.0 | 0.00 | 0.00 | 0.00 | 18 | 1006.3 | |
| 20260905095016 | 59 | 0.0 | 0.0 | 0.00 | 0.00 | 0.00 | 19 | 1006.2 | |
| 20260905094517 | 59 | 0.0 | 1.0 | 0.00 | 0.00 | 0.00 | 21 | 1006.2 | |
| 20260905094017 | 59 | 257 | 0.0 | 1.0 | 0.00 | 0.00 | 0.00 | 22 | 1006.3 |
| 20260905093516 | 59 | 0.0 | 0.0 | 0.00 | 0.00 | 0.00 | 21 | 1006.3 | |
| 20260905093016 | 59 | 0.0 | 0.0 | 0.00 | 0.00 | 0.00 | 21 | 1006.2 | |
| 20260905092516 | 59 | 0.0 | 0.0 | 0.00 | 0.00 | 0.00 | 20 | 1006.2 | |
| 20260905092016 | 59 | 0.0 | 0.0 | 0.00 | 0.00 | 0.00 | 20 | 1006.2 | |
| 20260905091517 | 59 | 0.0 | 0.0 | 0.00 | 0.00 | 0.00 | 19 | 1006.1 | |
| 20260905091016 | 59 | 0.0 | 0.0 | 0.00 | 0.00 | 0.00 | 19 | 1006.1 | |
| 20260905090516 | 59 | 0.0 | 0.0 | 0.00 | 0.00 | 0.00 | 19 | 1006.0 | |
| 20260905090016 | 59 | 0.0 | 0.0 | 0.00 | 0.00 | 0.00 | 18 | 1006.0 | |
| 20260905085516 | 59 | 0.0 | 0.0 | 0.00 | 0.00 | 0.00 | 19 | 1005.9 | |
| 20260905085016 | 59 | 0.0 | 0.0 | 0.00 | 0.00 | 0.00 | 20 | 1005.9 | |
| 20260905084536 | 59 | 0.0 | 0.0 | 0.00 | 0.00 | 0.00 | 20 | 1005.9 | |
| 20260905084016 | 59 | 0.0 | 0.0 | 0.00 | 0.00 | 0.00 | 21 | 1005.9 | |
| 20260905083536 | 59 | 0.0 | 0.0 | 0.00 | 0.00 | 0.00 | 22 | 1005.9 | |
| 20260905083036 | 59 | 0.0 | 0.0 | 0.00 | 0.00 | 0.00 | 23 | 1005.9 | |
| 20260905082536 | 59 | 0.0 | 0.0 | 0.00 | 0.00 | 0.00 | 24 | 1005.9 | |
| 20260905082016 | 59 | 0.0 | 0.0 | 0.00 | 0.00 | 0.00 | 25 | 1005.9 | |
| 20260905081516 | 59 | 0.0 | 0.0 | 0.00 | 0.00 | 0.00 | 27 | 1005.9 | |
| 20260905081016 | 59 | 0.0 | 0.0 | 0.00 | 0.00 | 0.00 | 28 | 1005.9 | |
| 20260905080516 | 59 | 0.0 | 0.0 | 0.00 | 0.00 | 0.00 | 29 | 1006.0 | |
| 20260905080036 | 59 | 0.0 | 0.0 | 0.00 | 0.00 | 0.00 | 29 | 1006.0 | |
| 20260905075516 | 59 | 0.0 | 0.0 | 0.00 | 0.00 | 0.00 | 29 | 1006.0 | |
| 20260905075016 | 60 | 0.0 | 0.0 | 0.00 | 0.00 | 0.00 | 30 | 1006.0 | |
| 20260905074516 | 60 | 0.0 | 0.0 | 0.00 | 0.00 | 0.00 | 30 | 1006.0 | |
| 20260905074016 | 60 | 0.0 | 0.0 | 0.00 | 0.00 | 0.00 | 31 | 1006.1 | |
| 20260905073516 | 60 | 0.0 | 0.0 | 0.00 | 0.00 | 0.00 | 33 | 1006.1 | |
| 20260905073016 | 60 | 0.0 | 0.0 | 0.00 | 0.00 | 0.00 | 34 | 1006.2 | |
| 20260905072536 | 60 | 0.0 | 0.0 | 0.00 | 0.00 | 0.00 | 32 | 1006.2 | |
| 20260905072056 | 60 | 0.0 | 0.0 | 0.00 | 0.00 | 0.00 | 31 | 1006.2 | |
| 20260905071516 | 60 | 0.0 | 0.0 | 0.00 | 0.00 | 0.00 | 30 | 1006.2 | |
| 20260905071016 | 61 | 0.0 | 0.0 | 0.00 | 0.00 | 0.00 | 29 | 1006.2 | |
| 20260905070516 | 61 | 0.0 | 0.0 | 0.00 | 0.00 | 0.00 | 28 | 1006.2 | |
| 20260905070016 | 61 | 0.0 | 0.0 | 0.00 | 0.00 | 0.00 | 29 | 1006.2 | |
| 20260905065516 | 61 | 0.0 | 1.0 | 0.00 | 0.00 | 0.00 | 32 | 1006.3 | |
| 20260905065016 | 61 | 257 | 0.0 | 2.0 | 0.00 | 0.00 | 0.00 | 31 | 1006.2 |
| 20260905064516 | 61 | 257 | 0.0 | 2.0 | 0.00 | 0.00 | 0.00 | 32 | 1006.2 |
| 20260905064016 | 61 | 0.0 | 0.0 | 0.00 | 0.00 | 0.00 | 34 | 1006.2 | |
| 20260905063516 | 61 | 0.0 | 0.0 | 0.00 | 0.00 | 0.00 | 35 | 1006.3 | |
| 20260905063016 | 61 | 0.0 | 0.0 | 0.00 | 0.00 | 0.00 | 33 | 1006.4 | |
| 20260905062516 | 61 | 0.0 | 0.0 | 0.00 | 0.00 | 0.00 | 33 | 1006.5 | |
| 20260905062016 | 61 | 0.0 | 0.0 | 0.00 | 0.00 | 0.00 | 31 | 1006.5 | |
| 20260905061536 | 61 | 0.0 | 0.0 | 0.00 | 0.00 | 0.00 | 31 | 1006.5 | |
| 20260905061016 | 61 | 0.0 | 0.0 | 0.00 | 0.00 | 0.00 | 31 | 1006.6 | |
| 20260905060516 | 61 | 0.0 | 0.0 | 0.00 | 0.00 | 0.00 | 31 | 1006.7 | |
| 20260905060016 | 61 | 0.0 | 0.0 | 0.00 | 0.00 | 0.00 | 31 | 1006.8 | |
| 20260905055516 | 61 | 0.0 | 0.0 | 0.00 | 0.00 | 0.00 | 30 | 1006.8 | |
| 20260905055016 | 61 | 0.0 | 0.0 | 0.00 | 0.00 | 0.00 | 30 | 1006.8 | |
| 20260905054556 | 61 | 0.0 | 0.0 | 0.00 | 0.00 | 0.00 | 29 | 1006.8 | |
| 20260905054016 | 61 | 0.0 | 0.0 | 0.00 | 0.00 | 0.00 | 28 | 1006.8 | |
| 20260905053516 | 61 | 0.0 | 0.0 | 0.00 | 0.00 | 0.00 | 27 | 1006.8 | |
| 20260905053017 | 61 | 0.0 | 0.0 | 0.00 | 0.00 | 0.00 | 29 | 1006.9 | |
| 20260905052516 | 61 | 0.0 | 0.0 | 0.00 | 0.00 | 0.00 | 28 | 1006.9 | |
| 20260905052016 | 61 | 0.0 | 0.0 | 0.00 | 0.00 | 0.00 | 27 | 1006.9 | |
| 20260905051516 | 61 | 0.0 | 0.0 | 0.00 | 0.00 | 0.00 | 27 | 1006.9 | |
| 20260905051016 | 61 | 0.0 | 0.0 | 0.00 | 0.00 | 0.00 | 28 | 1006.9 | |
| 20260905050516 | 61 | 0.0 | 0.0 | 0.00 | 0.00 | 0.00 | 28 | 1007.0 | |
| 20260905050016 | 61 | 0.0 | 0.0 | 0.00 | 0.00 | 0.00 | 27 | 1006.9 | |
| 20260905045516 | 61 | 0.0 | 0.0 | 0.00 | 0.00 | 0.00 | 26 | 1007.0 | |
| 20260905045016 | 61 | 0.0 | 0.0 | 0.00 | 0.00 | 0.00 | 25 | 1006.9 | |
| 20260905044516 | 61 | 0.0 | 0.0 | 0.00 | 0.00 | 0.00 | 26 | 1006.8 | |
| 20260905044036 | 61 | 0.0 | 0.0 | 0.00 | 0.00 | 0.00 | 28 | 1006.8 | |
| 20260905043516 | 62 | 0.0 | 0.0 | 0.00 | 0.00 | 0.00 | 28 | 1006.7 | |
| 20260905043016 | 62 | 0.0 | 0.0 | 0.00 | 0.00 | 0.00 | 29 | 1006.7 | |
| 20260905042536 | 62 | 0.0 | 0.0 | 0.00 | 0.00 | 0.00 | 29 | 1006.6 | |
| 20260905042016 | 62 | 0.0 | 0.0 | 0.00 | 0.00 | 0.00 | 28 | 1006.7 | |
| 20260905041516 | 62 | 0.0 | 0.0 | 0.00 | 0.00 | 0.00 | 27 | 1006.7 | |
| 20260905041016 | 62 | 0.0 | 0.0 | 0.00 | 0.00 | 0.00 | 28 | 1006.8 | |
| 20260905040516 | 62 | 0.0 | 0.0 | 0.00 | 0.00 | 0.00 | 28 | 1006.8 | |
| 20260905040016 | 62 | 0.0 | 0.0 | 0.00 | 0.00 | 0.00 | 28 | 1006.8 | |
| 20260905035535 | 62 | 0.0 | 0.0 | 0.00 | 0.00 | 0.00 | 27 | 1006.8 | |
| 20260905035015 | 62 | 0.0 | 0.0 | 0.00 | 0.00 | 0.00 | 30 | 1006.7 | |
| 20260905034535 | 62 | 0.0 | 0.0 | 0.00 | 0.00 | 0.00 | 31 | 1006.8 | |
| 20260905034015 | 62 | 0.0 | 0.0 | 0.00 | 0.00 | 0.00 | 31 | 1006.8 | |
| 20260905033515 | 62 | 0.0 | 0.0 | 0.00 | 0.00 | 0.00 | 32 | 1006.8 | |
| 20260905033015 | 62 | 0.0 | 0.0 | 0.00 | 0.00 | 0.00 | 32 | 1006.8 | |
| 20260905032515 | 63 | 0.0 | 0.0 | 0.00 | 0.00 | 0.00 | 31 | 1006.9 | |
| 20260905032016 | 63 | 0.0 | 0.0 | 0.00 | 0.00 | 0.00 | 32 | 1006.9 | |
| 20260905031515 | 63 | 0.0 | 0.0 | 0.00 | 0.00 | 0.00 | 32 | 1006.8 | |
| 20260905031016 | 63 | 0.0 | 0.0 | 0.00 | 0.00 | 0.00 | 32 | 1006.8 | |
| 20260905030515 | 63 | 0.0 | 0.0 | 0.00 | 0.00 | 0.00 | 33 | 1006.8 | |
| 20260905030016 | 63 | 0.0 | 0.0 | 0.00 | 0.00 | 0.00 | 33 | 1006.9 | |
| 20260905025515 | 63 | 0.0 | 0.0 | 0.00 | 0.00 | 0.00 | 33 | 1007.0 | |
| 20260905025015 | 63 | 0.0 | 0.0 | 0.00 | 0.00 | 0.00 | 34 | 1007.0 | |
| 20260905024515 | 63 | 0.0 | 0.0 | 0.00 | 0.00 | 0.00 | 36 | 1006.9 | |
| 20260905024015 | 63 | 0.0 | 0.0 | 0.00 | 0.00 | 0.00 | 37 | 1006.9 | |
| 20260905023535 | 63 | 0.0 | 0.0 | 0.00 | 0.00 | 0.00 | 37 | 1006.9 | |
| 20260905023035 | 63 | 0.0 | 0.0 | 0.00 | 0.00 | 0.00 | 39 | 1007.0 | |
| 20260905022515 | 63 | 0.0 | 0.0 | 0.00 | 0.00 | 0.00 | 42 | 1007.0 | |
| 20260905022015 | 63 | 0.0 | 0.0 | 0.00 | 0.00 | 0.00 | 45 | 1007.0 | |
| 20260905021515 | 64 | 0.0 | 0.0 | 0.00 | 0.00 | 0.00 | 46 | 1007.0 | |
| 20260905021015 | 64 | 0.0 | 0.0 | 0.00 | 0.00 | 0.00 | 47 | 1007.0 | |
| 20260905020535 | 64 | 0.0 | 0.0 | 0.00 | 0.00 | 0.00 | 48 | 1007.1 | |
| 20260905020015 | 64 | 0.0 | 0.0 | 0.00 | 0.00 | 0.00 | 50 | 1007.1 | |
| 20260905015515 | 64 | 0.0 | 0.0 | 0.00 | 0.00 | 0.00 | 54 | 1007.2 | |
| 20260905015055 | 64 | 0.0 | 0.0 | 0.00 | 0.00 | 0.00 | 56 | 1007.2 | |
| 20260905014515 | 65 | 0.0 | 0.0 | 0.00 | 0.00 | 0.00 | 56 | 1007.2 | |
| 20260905014015 | 65 | 0.0 | 0.0 | 0.00 | 0.00 | 0.00 | 56 | 1007.2 | |
| 20260905013515 | 65 | 0.0 | 0.0 | 0.00 | 0.00 | 0.00 | 55 | 1007.3 | |
| 20260905013015 | 65 | 0.0 | 0.0 | 0.00 | 0.00 | 0.00 | 58 | 1007.3 | |
| 20260905012535 | 65 | 0.0 | 0.0 | 0.00 | 0.00 | 0.00 | 60 | 1007.3 | |
| 20260905012035 | 65 | 0.0 | 0.0 | 0.00 | 0.00 | 0.00 | 60 | 1007.2 | |
| 20260905011515 | 66 | 0.0 | 0.0 | 0.00 | 0.00 | 0.00 | 62 | 1007.2 | |
| 20260905011015 | 66 | 0.0 | 0.0 | 0.00 | 0.00 | 0.00 | 61 | 1007.2 | |
| 20260905010515 | 66 | 0.0 | 0.0 | 0.00 | 0.00 | 0.00 | 62 | 1007.2 | |
| 20260905010035 | 66 | 0.0 | 0.0 | 0.00 | 0.00 | 0.00 | 63 | 1007.1 | |
| 20260905005515 | 66 | 0.0 | 0.0 | 0.00 | 0.00 | 0.00 | 62 | 1007.1 | |
| 20260905005015 | 67 | 0.0 | 0.0 | 0.00 | 0.00 | 0.00 | 61 | 1007.1 | |
| 20260905004515 | 67 | 0.0 | 0.0 | 0.00 | 0.00 | 0.00 | 65 | 1006.9 | |
| 20260905004015 | 67 | 0.0 | 0.0 | 0.00 | 0.00 | 0.00 | 64 | 1007.0 | |
| 20260905003535 | 67 | 0.0 | 0.0 | 0.00 | 0.00 | 0.00 | 65 | 1007.0 | |
| 20260905003015 | 67 | 0.0 | 0.0 | 0.00 | 0.00 | 0.00 | 66 | 1007.0 | |
| 20260905002515 | 68 | 0.0 | 0.0 | 0.00 | 0.00 | 0.00 | 67 | 1007.0 | |
| 20260905002015 | 68 | 0.0 | 0.0 | 0.00 | 0.00 | 0.00 | 67 | 1007.0 | |
| 20260905001515 | 68 | 0.0 | 0.0 | 0.00 | 0.00 | 0.00 | 70 | 1007.0 | |
| 20260905001035 | 68 | 0.0 | 0.0 | 0.00 | 0.00 | 0.00 | 72 | 1006.9 | |
| 20260905000555 | 69 | 0.0 | 0.0 | 0.00 | 0.00 | 0.00 | 72 | 1006.9 | |
| 20260905000035 | 69 | 0.0 | 0.0 | 0.00 | 0.00 | 0.00 | 73 | 1006.9 | |
| 20260904235515 | 69 | 0.0 | 0.0 | 0.00 | 0.00 | 0.00 | 73 | 1006.9 | |
| 20260904235015 | 69 | 0.0 | 0.0 | 0.00 | 0.00 | 0.00 | 73 | 1006.8 | |
| 20260904234515 | 69 | 0.0 | 0.0 | 0.00 | 0.00 | 0.00 | 73 | 1006.7 | |
| 20260904234015 | 70 | 0.0 | 0.0 | 0.00 | 0.00 | 0.00 | 73 | 1006.6 | |
| 20260904233615 | 70 | 0.0 | 0.0 | 0.00 | 0.00 | 0.00 | 74 | 1006.6 | |
| 20260904233015 | 70 | 0.0 | 0.0 | 0.00 | 0.00 | 0.00 | 74 | 1006.6 | |
| 20260904232515 | 70 | 0.0 | 0.0 | 0.00 | 0.00 | 0.00 | 74 | 1006.5 | |
| 20260904232015 | 71 | 0.0 | 0.0 | 0.00 | 0.00 | 0.00 | 74 | 1006.4 | |
| 20260904231515 | 71 | 0.0 | 0.0 | 0.00 | 0.00 | 0.00 | 74 | 1006.3 | |
| 20260904231015 | 71 | 0.0 | 0.0 | 0.00 | 0.00 | 0.00 | 74 | 1006.3 | |
| 20260904230515 | 72 | 0.0 | 0.0 | 0.00 | 0.00 | 0.00 | 74 | 1006.2 | |
| 20260904230015 | 72 | 0.0 | 0.0 | 0.00 | 0.00 | 0.00 | 73 | 1006.2 | |
| 20260904225515 | 72 | 0.0 | 0.0 | 0.00 | 0.00 | 0.00 | 73 | 1006.3 | |
| 20260904225015 | 72 | 0.0 | 0.0 | 0.00 | 0.00 | 0.00 | 73 | 1006.3 | |
| 20260904224515 | 73 | 0.0 | 0.0 | 0.00 | 0.00 | 0.00 | 73 | 1006.3 | |
| 20260904224015 | 73 | 0.0 | 0.0 | 0.00 | 0.00 | 0.00 | 73 | 1006.2 | |
| 20260904223515 | 73 | 0.0 | 0.0 | 0.00 | 0.00 | 0.00 | 73 | 1006.2 | |
| 20260904223015 | 74 | 0.0 | 0.0 | 0.00 | 0.00 | 0.00 | 73 | 1006.2 | |
| 20260904222515 | 74 | 0.0 | 0.0 | 0.00 | 0.00 | 0.00 | 73 | 1006.2 | |
| 20260904222015 | 74 | 0.0 | 0.0 | 0.00 | 0.00 | 0.00 | 72 | 1006.1 | |
| 20260904221517 | 74 | 0.0 | 0.0 | 0.00 | 0.00 | 0.00 | 72 | 1006.1 | |
| 20260904221017 | 75 | 0.0 | 0.0 | 0.00 | 0.00 | 0.00 | 72 | 1006.1 | |
| 20260904220516 | 75 | 0.0 | 0.0 | 0.00 | 0.00 | 0.00 | 72 | 1006.1 | |
| 20260904220057 | 75 | 0.0 | 0.0 | 0.00 | 0.00 | 0.00 | 71 | 1006.1 | |
| 20260904215537 | 76 | 0.0 | 0.0 | 0.00 | 0.00 | 0.00 | 70 | 1006.1 | |
| 20260904215016 | 76 | 0.0 | 0.0 | 0.00 | 0.00 | 0.00 | 71 | 1006.1 | |
| 20260904214517 | 76 | 0.0 | 0.0 | 0.00 | 0.00 | 0.00 | 70 | 1006.0 |